Terminal Aerodrome Forecast
Issued by NWS Houston/Galveston TX

Home | Current Version | Previous Version | Text Only | Print | Product List | Glossary On
Versions: 1 2 3 4 5 6 7 8 9 10 11 12 13 14 15 16 17 18 19 20 21 22 23 24 25 26 27 28 29 30 31 32 33 34 35
000
FTUS44 KHGX 291148
TAFHOU
TAF
KHOU 291148Z 2912/3012 00000KT P6SM VCSH FEW016 SCT030
     FM291400 20007KT P6SM VCSH BKN025
      TEMPO 2914/2916 VRB05G15KT -SHRA
     FM291800 21010KT P6SM BKN050
     FM300000 17007KT P6SM SCT250
      TEMPO 3009/3012 BKN018=

USA.gov is the U.S. government's official web portal to all federal, state and local government web resources and services.